Home > Weather > Kapurthala > Past weeks

Flag for India Weather for the Past 2 Weeks in Kapurthala, Punjab, India

Now
84 °F

Passing clouds.


Feels Like: 83 °F
Forecast: 74 / 100 °F
Wind: 3 mph from North

Location: Amritsar Airport

Current Time: May 5, 2016 at 10:20:07 PM

Latest Report: May 5, 2016 at 10:00 PM


Visibility: 2 mi

Pressure: 29.77 "Hg

Humidity: 40%

Dew Point: 57 °F

Location of KapurthalaLocation

Historic Weather in Kapurthala — Graph

°F

Kapurthala Temperature Yesterday

Maximum temperature yesterday: 90 °F (at 3:30 PM)
Minimum temperature yesterday: 75 °F (at 11:30 PM)
Average temperature yesterday: 82 °F

High & Low Weather Summary for the Past Weeks

 TemperatureHumidityPressure
High109 °F (May 2, 2:00 PM)78% (Apr 21, 10:30 PM)29.83 "Hg (Apr 21, 10:30 PM)
Low61 °F (Apr 23, 5:30 AM)5% (May 2, 2:00 PM)29.56 "Hg (May 1, 4:30 PM)
Average85 °F30%29.70 "Hg
* Reported Apr 20 8:30 PM — May 5 9:00 PM, Kapurthala, Weather by CustomWeather, © 2016

Note: Actual official high and low records may vary slightly from our data, if they occured in-between our weather recording intervals... More about our weather records

Advertising

Kapurthala Weather History for the Previous 24 Hours

Scroll right to see more
 ConditionsComfort  
Time TempWeatherWind HumidityBarometerVisibility
9:00 PM
Thu, May 5
86 °FPassing clouds.2 mph38%29.77 "Hg2 mi
8:30 PM86 °FPassing clouds.2 mph38%29.77 "Hg2 mi
8:00 PM86 °FPassing clouds.6 mph38%29.74 "Hg2 mi
7:30 PM88 °FScattered clouds.5 mph35%29.74 "Hg2 mi
7:00 PM91 °FScattered clouds.6 mph30%29.74 "Hg2 mi
6:30 PM93 °FScattered clouds.No wind30%29.71 "Hg2 mi
6:00 PM93 °FScattered clouds.3 mph30%29.71 "Hg2 mi
5:30 PM95 °FScattered clouds.6 mph26%29.71 "Hg2 mi
5:00 PM95 °FScattered clouds.5 mph26%29.71 "Hg2 mi
4:30 PM95 °FScattered clouds.3 mph26%29.71 "Hg2 mi
4:00 PM95 °FScattered clouds.7 mph26%29.71 "Hg2 mi
3:30 PM97 °FScattered clouds.8 mph25%29.74 "Hg2 mi
3:00 PM95 °FScattered clouds.5 mph26%29.74 "Hg2 mi
2:30 PM95 °FScattered clouds.7 mph25%29.77 "Hg2 mi
2:00 PM97 °FBroken clouds.2 mph23%29.77 "Hg2 mi
1:30 PM97 °FBroken clouds.6 mph22%29.77 "Hg2 mi
1:00 PM95 °FPartly sunny.8 mph25%29.77 "Hg3 mi
12:30 PM95 °FScattered clouds.6 mph23%29.80 "Hg3 mi
12:00 PM93 °FScattered clouds.3 mph26%29.80 "Hg3 mi
11:30 AM91 °FScattered clouds.6 mph28%29.80 "Hg3 mi
11:00 AM90 °FScattered clouds.2 mph29%29.80 "Hg3 mi
10:30 AM88 °FScattered clouds.2 mph31%29.83 "Hg3 mi
10:00 AM86 °FPartly sunny.No wind35%29.83 "Hg3 mi
9:30 AM86 °FPartly sunny.2 mph35%29.80 "Hg3 mi
9:00 AM82 °FPartly sunny.6 mph42%29.80 "Hg3 mi
8:30 AM81 °FPartly sunny.5 mph42%29.80 "Hg3 mi
8:00 AM77 °FScattered clouds.6 mph47%29.77 "Hg3 mi
7:30 AM75 °FScattered clouds.2 mph50%29.77 "Hg3 mi
7:00 AM73 °FScattered clouds.2 mph53%29.77 "Hg3 mi
6:30 AM70 °FHaze.No wind60%29.74 "Hg3 mi
6:00 AM72 °FPassing clouds.2 mph57%29.74 "Hg3 mi
5:30 AM70 °FPassing clouds.No wind60%29.71 "Hg3 mi
4:00 AM72 °FPassing clouds.6 mph57%29.71 "Hg3 mi
3:30 AM73 °FPassing clouds.9 mph53%29.71 "Hg3 mi
3:00 AM73 °FPassing clouds.9 mph53%29.71 "Hg3 mi
2:30 AM73 °FPassing clouds.6 mph57%29.71 "Hg2 mi
2:00 AM72 °FPassing clouds.3 mph61%29.74 "Hg2 mi
1:30 AM70 °FPassing clouds.2 mph60%29.74 "Hg2 mi
1:00 AM72 °FPassing clouds.No wind57%29.71 "Hg2 mi
12:30 AM73 °FPassing clouds.No wind53%29.74 "Hg2 mi
12:00 AM73 °FPassing clouds.No wind53%29.71 "Hg2 mi
11:30 PM
Wed, May 4
75 °FPassing clouds.No wind50%29.74 "Hg2 mi
11:00 PM77 °FPassing clouds.5 mph47%29.74 "Hg2 mi
10:30 PM79 °FPassing clouds.8 mph42%29.74 "Hg2 mi
10:00 PM79 °FPassing clouds.2 mph45%29.74 "Hg2 mi
Weather by CustomWeather, © 2016

See weather overviewHow to use our weather pages